Theta_e
306 307 306 305 303 301 300 300 300 300 301 301 301 302 302 303 303 310 311 307 307 306 308 310 310 310 311 312 315 320 324 324 325 326 326 326 325 324 324 324 324 324 324 322 325
301 304 306 307 307 306 302 301 301 301 301 301 301 302 302 303 306 309 308 308 312 310 309 306 307 309 310 311 314 318 319 321 323 324 325 325 324 323 323 323 321 322 322 321 319
305 301 303 305 307 307 307 301 301 301 301 301 302 302 302 303 309 310 310 311 311 311 312 309 309 310 311 311 312 314 317 319 320 320 321 322 321 320 320 321 322 319 320 319 318
309 309 307 304 305 307 307 303 301 302 301 302 302 303 303 303 315 310 311 312 311 311 311 311 311 309 311 312 310 313 312 312 316 314 314 318 314 316 317 318 317 317 316 317 319
309 309 309 309 305 306 307 302 302 302 302 302 303 306 303 305 311 311 311 310 310 310 310 311 311 310 311 311 311 312 312 312 312 312 312 313 314 315 314 314 315 316 317 318 319
309 309 309 309 308 305 305 303 302 302 302 302 306 307 304 306 312 311 310 309 309 309 310 311 311 311 311 311 312 311 311 312 311 312 312 313 314 313 315 314 314 315 316 317 317
308 309 309 309 309 306 304 303 303 303 303 303 307 307 303 304 311 310 310 309 308 309 309 310 311 310 310 311 310 310 311 311 311 311 311 312 313 313 313 313 314 316 316 316 316
308 308 309 309 309 306 303 305 306 307 307 306 307 305 304 305 310 309 309 309 308 309 309 309 309 310 311 310 310 311 309 311 312 311 310 312 312 313 311 312 313 313 313 314 313
307 305 307 308 308 305 308 310 309 311 311 310 308 310 313 312 311 310 309 309 309 309 309 309 309 310 310 312 312 311 311 311 312 311 312 312 313 313 311 311 312 312 313 313 313
304 307 309 309 306 309 310 310 312 311 310 310 311 312 313 313 312 310 309 309 308 308 309 309 309 311 311 311 311 310 311 311 312 312 312 312 312 312 311 311 312 312 312 312 313
306 309 310 310 307 311 311 311 310 309 310 310 310 310 311 312 312 310 309 309 309 308 310 308 311 311 310 310 310 311 311 311 311 312 312 312 312 312 311 312 312 312 311 312 312
308 310 310 309 310 311 311 311 310 310 311 310 310 310 310 310 310 309 309 309 309 309 308 309 310 310 309 309 310 311 311 311 312 312 311 310 311 311 311 312 312 313 313 312 312
309 310 310 306 310 310 310 310 310 310 310 310 310 310 309 310 310 310 310 309 310 309 309 309 309 309 308 309 310 311 311 311 310 311 311 311 310 311 311 312 312 312 312 312 311
307 309 306 307 311 310 311 311 310 310 313 313 311 311 310 310 310 309 310 310 309 310 308 309 308 308 309 309 310 310 311 311 311 310 310 311 310 311 311 311 312 311 312 312 312
307 309 305 309 311 311 310 309 309 311 313 314 311 310 310 309 309 309 309 309 310 309 309 310 309 309 309 310 310 310 311 311 311 311 311 311 311 311 311 311 311 312 310 311 311
306 307 309 311 310 311 307 308 311 316 316 311 311 311 312 311 311 311 310 308 308 309 308 309 307 309 309 309 311 311 311 311 310 311 311 311 311 311 311 311 312 312 311 311 312
307 310 311 310 311 310 310 312 316 318 313 312 310 310 311 312 312 311 311 311 310 310 310 309 309 309 311 311 310 311 311 311 310 311 310 311 311 311 312 311 312 312 312 312 313
311 310 310 312 311 310 311 314 317 314 313 312 311 310 311 311 311 311 311 311 311 310 310 311 311 310 312 311 311 311 312 311 310 310 311 311 311 312 311 311 311 313 313 314 314
312 312 311 310 310 310 311 316 315 313 311 312 311 311 312 311 311 311 310 310 310 311 312 312 312 311 310 310 311 311 311 310 312 312 313 312 311 312 312 312 312 312 312 313 314
313 313 313 310 310 310 313 314 314 311 310 311 311 310 311 311 311 311 311 310 312 311 310 311 312 311 311 310 310 311 311 313 314 314 313 312 312 312 312 312 312 312 312 312 312
310 313 312 311 310 310 314 312 312 311 310 312 311 310 310 310 311 311 310 309 311 311 310 311 311 310 311 312 311 310 312 312 312 313 315 314 313 312 312 312 312 312 311 312 312
310 312 311 312 310 305 312 309 308 310 310 311 310 310 311 311 310 310 310 310 310 311 311 312 312 313 312 311 311 311 312 312 314 314 313 313 313 312 312 312 312 312 311 311 311
305 310 310 310 314 310 307 308 308 309 310 310 310 310 310 311 311 311 310 309 309 310 311 312 312 312 310 312 311 312 312 312 313 313 314 314 313 312 312 312 312 312 312 312 311
303 309 304 307 303 305 306 307 310 309 309 308 308 309 309 310 310 311 310 309 308 308 309 311 312 312 311 310 312 312 312 312 313 314 314 314 314 313 313 313 313 313 311 311 312
300 303 302 303 303 304 304 306 308 309 308 307 308 308 307 309 308 308 308 308 308 308 309 311 312 312 311 310 311 312 313 313 313 313 314 314 313 313 313 313 312 310 310 311 310
299 301 300 301 301 303 303 306 307 307 306 308 308 307 306 307 307 308 308 308 308 309 312 312 312 312 311 310 311 312 312 312 313 313 313 313 314 313 312 311 311 310 309 309 309
296 298 301 300 302 303 303 305 305 303 303 304 306 305 305 305 305 305 306 306 307 308 310 311 312 311 311 311 312 314 313 313 313 313 313 314 313 314 313 312 310 309 309 309 309
Wind_Speed
17 15 15 15 15 15 14 13 12 11 10 10 10 10 12 13 13 9 4 3 4 7 7 6 6 6 7 8 6 6 7 11 14 12 10 3 0 1 2 9 9 6 16 12 20
18 17 17 16 16 16 15 14 12 12 11 10 10 10 11 13 8 2 1 0 2 2 2 3 6 7 5 6 7 8 8 11 5 14 12 16 11 8 8 10 15 20 13 14 18
19 18 17 17 17 16 16 15 13 12 10 9 9 10 10 10 1 1 3 7 8 6 6 6 6 7 6 5 6 4 10 4 5 11 7 15 15 8 9 14 12 17 25 25 23
20 20 19 18 16 16 16 14 11 11 10 9 8 8 8 4 3 3 6 4 4 5 6 4 4 3 4 6 1 4 2 5 9 6 5 8 9 9 13 20 17 23 25 24 16
22 21 20 19 18 17 16 13 9 8 9 9 7 7 6 3 4 6 6 2 2 3 3 4 4 2 3 3 2 4 2 3 7 6 8 11 18 16 21 22 21 18 18 16 13
22 22 22 20 18 17 15 11 8 6 6 6 6 8 4 4 8 8 5 3 1 2 2 4 2 2 4 1 3 3 3 7 8 10 8 11 20 9 13 10 22 29 28 21 18
24 23 20 19 16 15 13 10 6 4 4 4 5 7 7 7 8 8 6 4 4 1 1 1 2 1 2 2 1 2 4 6 11 6 6 8 17 13 18 16 19 14 14 13 13
24 23 22 19 16 12 9 6 6 5 5 5 5 6 5 6 10 8 6 2 3 5 3 2 3 2 1 3 1 1 1 2 2 0 4 6 8 4 12 11 8 15 11 10 11
26 25 23 18 13 8 4 4 4 2 2 3 3 3 3 6 6 7 7 3 2 3 5 5 5 3 2 1 3 3 1 1 2 4 6 2 5 8 12 10 15 17 12 12 13
28 26 21 14 8 3 3 3 4 4 4 1 3 2 1 1 4 6 5 6 5 1 4 4 2 2 2 2 3 2 2 1 4 3 8 9 11 13 18 11 12 15 15 12 11
30 24 17 8 1 3 4 0 3 2 6 5 4 5 6 2 5 4 2 2 3 2 1 2 3 4 4 4 2 3 3 2 3 2 9 13 17 16 19 17 14 13 16 12 11
27 21 12 3 5 5 5 4 4 4 5 3 8 13 11 8 3 8 6 3 3 1 2 3 5 6 4 3 5 5 4 4 5 6 9 15 21 19 16 16 20 17 13 12 13
23 17 9 3 8 9 8 6 5 7 2 4 1 2 4 6 4 4 7 4 4 3 3 2 3 6 4 4 5 5 5 3 5 4 11 10 14 4 7 11 12 13 14 15 17
19 13 8 7 7 6 3 5 7 6 2 2 1 2 4 4 3 3 8 5 2 3 3 5 1 4 4 5 6 7 6 4 7 9 8 4 6 10 8 9 10 17 18 16 16
14 10 5 3 5 2 5 8 6 1 2 1 2 2 3 4 3 2 3 8 11 7 4 3 3 3 7 6 7 3 2 5 8 12 7 7 6 4 9 9 9 9 14 17 21
13 8 7 6 5 7 8 4 1 2 1 1 2 2 1 1 3 5 3 3 1 6 7 9 2 4 5 2 4 2 3 7 2 3 5 1 4 7 5 5 4 13 18 18 14
10 9 6 6 8 10 5 2 1 2 3 1 0 1 1 2 1 3 1 1 4 5 9 3 4 2 4 5 3 2 3 5 3 3 4 5 8 13 7 11 15 13 14 13 8
5 5 5 6 8 10 2 1 3 1 1 3 2 3 4 2 1 3 1 3 3 2 2 5 7 7 5 5 3 5 4 5 5 4 8 10 11 2 2 6 14 10 11 10 9
1 4 7 8 10 9 0 1 2 2 2 4 7 4 3 3 3 3 2 5 4 4 6 5 5 2 5 2 3 3 6 4 11 11 9 8 12 17 12 8 10 13 16 19 15
6 8 5 9 11 6 0 2 2 2 3 2 4 4 5 3 3 2 3 1 2 2 1 1 5 5 5 3 6 10 6 3 3 5 6 8 16 14 13 13 11 13 15 13 12
5 2 2 9 9 2 1 2 3 4 2 4 4 6 5 5 7 4 4 3 4 4 1 3 4 5 4 7 10 5 8 3 3 5 5 8 7 5 11 7 11 11 17 21 25
3 1 5 9 2 2 1 3 5 5 2 3 3 4 4 3 4 6 8 6 1 6 3 3 2 7 11 12 10 10 10 10 6 6 7 9 16 14 15 13 10 15 23 29 31
7 3 5 7 1 2 4 4 4 3 3 2 3 1 0 2 4 7 4 2 2 5 2 4 3 5 5 4 4 4 9 7 7 2 15 11 11 6 10 17 29 29 28 30 28
7 3 4 7 5 2 4 3 4 4 3 3 3 1 2 3 5 4 2 1 1 6 6 3 8 12 12 9 2 10 13 12 11 5 15 19 33 26 23 20 23 25 29 29 25
7 2 2 4 2 4 1 3 5 4 3 3 2 6 4 3 4 6 6 6 8 18 9 7 12 14 18 20 19 20 22 23 21 23 14 27 26 27 20 21 22 23 26 27 28
4 3 2 3 4 3 3 2 3 3 3 4 5 7 6 6 9 16 17 12 11 3 4 5 4 8 15 17 19 22 23 24 25 24 24 28 31 24 26 21 25 27 24 28 30
6 5 3 1 2 2 1 1 1 5 6 9 6 11 15 16 17 19 18 21 16 9 6 4 3 3 13 10 9 14 21 18 12 11 13 18 20 17 18 19 23 32 31 33 33
Wind_Direction
348 347 346 344 341 336 329 322 316 312 310 310 308 311 316 316 319 311 311 279 257 222 223 228 236 210 190 181 190 175 220 232 226 219 230 201 243 275 247 292 296 299 312 324 340
354 349 344 342 340 336 331 323 317 310 306 307 308 314 320 323 326 48 21 190 144 182 256 218 190 170 157 182 172 219 225 220 227 234 234 233 254 284 290 286 286 296 296 318 336
359 354 347 341 337 335 331 322 316 311 302 301 307 315 321 327 310 84 94 99 101 88 77 87 135 152 155 176 170 189 249 205 171 248 260 264 269 245 282 277 283 299 308 314 323
348 347 346 341 335 332 329 323 311 307 303 300 304 313 317 319 164 167 139 107 86 65 57 67 115 125 137 183 171 193 229 283 241 268 301 272 294 245 233 265 281 290 295 298 306
340 338 337 338 334 329 327 319 308 300 295 299 306 316 314 275 222 167 154 135 82 36 53 70 74 118 132 144 199 204 179 290 292 292 285 285 269 281 282 276 287 292 305 296 292
337 333 333 334 333 327 324 312 302 294 287 284 299 316 283 255 170 171 182 210 259 6 62 104 117 105 118 143 258 174 236 274 278 261 255 260 266 272 257 300 290 294 291 288 289
337 334 332 331 330 327 322 308 294 277 262 268 286 301 272 234 170 177 213 237 272 206 94 50 132 134 145 154 244 287 278 274 245 254 245 263 263 259 284 271 269 290 294 301 294
340 337 334 331 329 329 327 319 305 287 266 262 281 298 257 171 179 191 219 273 192 210 226 254 204 185 212 133 65 190 157 242 100 236 51 212 245 261 13 345 326 319 305 312 324
339 334 331 331 327 342 353 8 336 316 229 240 264 286 259 191 192 216 219 245 277 273 254 220 183 124 128 210 168 37 143 355 311 65 24 1 293 288 333 326 312 309 301 306 310
339 336 334 331 331 27 40 63 60 92 85 82 261 287 121 176 192 213 238 271 263 248 120 181 102 162 141 215 191 139 142 206 313 343 339 304 279 286 297 291 279 292 295 292 296
340 339 339 333 27 78 68 61 334 328 298 236 281 278 300 341 211 213 211 251 233 89 177 40 208 196 170 203 177 174 184 250 284 266 322 301 293 287 285 284 277 267 277 275 285
345 347 345 12 127 105 90 84 36 316 315 302 266 258 256 281 290 238 236 210 184 229 149 187 242 217 168 196 187 195 205 231 278 276 310 301 293 286 269 261 258 255 245 256 277
351 359 12 82 133 121 90 59 6 344 268 299 288 117 198 225 235 275 211 202 221 236 212 245 107 144 198 183 214 220 240 226 280 288 270 299 287 246 279 244 240 236 249 261 260
355 3 16 123 131 141 63 357 336 324 315 41 133 148 162 162 264 292 218 201 185 270 184 264 121 195 195 258 227 271 214 247 290 316 311 345 288 240 262 246 252 262 265 259 250
359 8 41 110 109 140 318 321 317 252 176 325 106 118 201 201 332 53 281 218 232 198 190 222 213 272 281 272 192 277 215 297 298 294 295 266 257 172 181 264 256 261 269 276 283
18 27 85 92 58 352 321 315 124 234 183 94 85 347 233 168 153 325 44 238 214 201 230 263 238 249 250 145 175 102 277 283 237 251 258 278 252 284 236 182 217 301 287 282 285
39 60 75 28 350 349 346 148 221 228 355 108 245 348 251 304 355 42 24 47 235 222 229 217 207 196 196 175 152 151 295 299 257 214 283 176 271 257 248 268 292 288 288 295 265
28 33 10 360 350 348 2 162 224 122 309 347 295 301 228 356 228 339 252 245 212 194 207 230 235 187 170 226 237 222 245 267 287 264 294 242 256 239 16 278 280 277 283 286 290
323 17 4 346 342 342 23 201 221 186 310 304 310 265 218 211 306 310 244 262 237 189 231 205 243 292 211 173 210 171 230 329 262 278 275 243 261 279 276 302 287 276 259 275 288
276 293 312 343 338 336 75 243 221 242 323 233 246 237 240 229 270 254 287 226 212 175 21 174 269 241 273 283 216 224 146 195 196 265 264 265 272 261 294 306 291 284 280 289 290
308 276 315 338 338 10 283 264 274 263 288 242 256 256 244 250 232 222 255 272 199 164 182 180 240 249 240 214 236 188 219 214 271 241 268 295 273 202 295 318 309 297 301 308 308
16 275 329 346 5 49 287 318 313 266 234 276 262 251 239 208 229 235 240 233 133 168 221 211 235 259 266 270 268 254 247 226 228 209 234 278 274 285 278 302 329 309 305 299 299
353 328 351 356 49 351 323 288 273 277 250 275 274 244 154 232 259 238 233 145 198 195 218 184 222 286 275 155 122 191 189 208 238 267 248 255 265 203 302 309 304 303 303 302 300
352 356 7 51 74 43 338 277 288 320 270 312 285 263 234 246 231 271 256 284 254 277 305 263 243 248 256 296 293 266 257 245 243 235 264 247 272 281 288 292 299 300 306 305 300
13 59 11 322 39 345 291 302 292 294 359 317 263 68 21 274 264 264 283 275 261 283 274 227 252 247 260 270 275 272 271 271 261 248 250 273 272 278 286 288 301 301 303 301 298
25 348 318 281 286 283 196 231 287 311 315 304 274 345 324 273 267 275 274 266 262 242 211 200 244 254 265 262 259 267 268 262 259 261 260 263 270 276 279 291 298 306 308 302 298
11 334 312 254 269 271 224 301 331 344 288 251 300 303 287 286 292 277 276 267 257 249 250 253 237 273 275 293 284 270 258 263 250 245 251 265 275 291 298 303 302 305 302 293 298